When you browse on this site, cookies collect data to enhance your experience and personalize the content and advertising you see.
Visit our Privacy Policy to learn more. By continuing to use the site, you agree to this use of cookies and data.
  • In Hungary
  • List of Countries
  • For 7 days
  • Water Temperature
  • Satellite Maps
  • Weather Map
  • News
  • Weather Widgets
  • user-avatar
    Login

    Hourly Weather Botovo

    Today, 16 December, Sunday

    Time Temperature Precipitation Wind Pressure Humidity
    00:00 -7°C° 0 mm 1 mps 757 mmHg 95%
    01:00 -7°C° 0 mm 1 mps 757 mmHg 95%
    02:00 -7°C° 0 mm 1 mps 757 mmHg 96%
    03:00 -6°C° 0 mm 1 mps 757 mmHg 95%
    04:00 -6°C° 0 mm 1 mps 757 mmHg 95%
    05:00 -6°C° 0 mm 1 mps 757 mmHg 94%
    06:00 -6°C° 0 mm 1 mps 757 mmHg 94%
    07:00 -4°C° 0 mm 1 mps 757 mmHg 94%
    08:00 -4°C° 0 mm 1 mps 757 mmHg 94%
    09:00 -4°C° 0 mm 1 mps 758 mmHg 92%
    10:00 -6°C° 0 mm 2 mps 758 mmHg 91%
    11:00 -5°C° 0 mm 2 mps 758 mmHg 89%
    12:00 -5°C° 0 mm 2 mps 758 mmHg 90%
    13:00 -3°C° 0 mm 1 mps 758 mmHg 90%
    14:00 -3°C° 0 mm 1 mps 758 mmHg 91%
    15:00 -6°C° 0 mm 2 mps 757 mmHg 92%
    16:00 -6°C° 0 mm 2 mps 757 mmHg 92%
    17:00 -7°C° 0 mm 2 mps 757 mmHg 93%
    18:00 -7°C° 0 mm 2 mps 757 mmHg 93%
    19:00 -7°C° 0 mm 2 mps 757 mmHg 93%
    20:00 -8°C° 0 mm 2 mps 757 mmHg 92%
    21:00 -9°C° 0 mm 2 mps 757 mmHg 90%
    22:00 -9°C° 0 mm 2 mps 757 mmHg 88%
    23:00 -12°C° 0 mm 3 mps 756 mmHg 86%

    Tomorrow, 17 December, Monday

    Time Temperature Precipitation Wind Pressure Humidity
    00:00 -12°C° 0 mm 3 mps 756 mmHg 83%
    01:00 -12°C° 0 mm 3 mps 756 mmHg 81%
    02:00 -13°C° 0 mm 3 mps 756 mmHg 78%
    03:00 -13°C° 0 mm 3 mps 756 mmHg 79%
    04:00 -13°C° 0 mm 3 mps 755 mmHg 79%
    05:00 -14°C° 0 mm 3 mps 755 mmHg 79%
    06:00 -14°C° 0 mm 3 mps 755 mmHg 80%
    07:00 -14°C° 0 mm 3 mps 755 mmHg 81%
    08:00 -14°C° 0 mm 3 mps 755 mmHg 82%
    09:00 -14°C° 0 mm 3 mps 755 mmHg 82%
    10:00 -13°C° 0 mm 3 mps 755 mmHg 82%
    11:00 -13°C° 0 mm 3 mps 755 mmHg 82%
    12:00 -12°C° 0 mm 3 mps 754 mmHg 83%
    13:00 -12°C° 0 mm 3 mps 754 mmHg 84%
    14:00 -12°C° 0 mm 3 mps 754 mmHg 85%
    15:00 -12°C° 0 mm 3 mps 754 mmHg 87%
    16:00 -13°C° 0 mm 3 mps 754 mmHg 89%
    17:00 -13°C° 0 mm 3 mps 754 mmHg 91%
    18:00 -13°C° 0 mm 3 mps 754 mmHg 91%
    19:00 -13°C° 0 mm 3 mps 754 mmHg 92%
    20:00 -13°C° 0 mm 3 mps 754 mmHg 92%
    21:00 -13°C° 0 mm 3 mps 754 mmHg 92%
    22:00 -13°C° 0 mm 3 mps 754 mmHg 92%
    23:00 -13°C° 0 mm 3 mps 754 mmHg 92%

    Day after tomorrow, 18 December, Tuesday

    Time Temperature Precipitation Wind Pressure Humidity
    00:00 -13°C° 0 mm 3 mps 754 mmHg 92%
    01:00 -12°C° 0 mm 2 mps 754 mmHg 92%
    02:00 -12°C° 0 mm 2 mps 754 mmHg 93%
    03:00 -13°C° 0 mm 2 mps 754 mmHg 92%
    04:00 -13°C° 0 mm 2 mps 754 mmHg 92%
    05:00 -13°C° 0 mm 2 mps 754 mmHg 92%
    06:00 -13°C° 0 mm 2 mps 754 mmHg 92%
    07:00 -13°C° 0 mm 2 mps 754 mmHg 92%
    08:00 -13°C° 0 mm 2 mps 754 mmHg 92%
    09:00 -13°C° 0 mm 2 mps 754 mmHg 89%
    10:00 -12°C° 0 mm 2 mps 754 mmHg 87%
    11:00 -13°C° 0 mm 3 mps 754 mmHg 84%
    12:00 -12°C° 0 mm 2 mps 754 mmHg 84%
    13:00 -12°C° 0 mm 2 mps 754 mmHg 83%
    14:00 -12°C° 0 mm 2 mps 754 mmHg 83%
    15:00 -12°C° 0 mm 2 mps 754 mmHg 84%
    16:00 -12°C° 0 mm 2 mps 754 mmHg 85%
    17:00 -12°C° 0 mm 2 mps 754 mmHg 86%
    18:00 -12°C° 0 mm 2 mps 754 mmHg 86%
    19:00 -12°C° 0 mm 2 mps 754 mmHg 86%
    20:00 -12°C° 0 mm 2 mps 754 mmHg 87%
    21:00 -12°C° 0 mm 2 mps 754 mmHg 87%
    22:00 -12°C° 0 mm 2 mps 754 mmHg 87%
    23:00 -12°C° 0 mm 2 mps 754 mmHg 87%

    19 December, Wednesday

    Time Temperature Precipitation Wind Pressure Humidity
    00:00 -12°C° 0 mm 2 mps 754 mmHg 88%
    01:00 -12°C° 0 mm 2 mps 754 mmHg 88%
    02:00 -12°C° 0 mm 2 mps 754 mmHg 89%
    03:00 -12°C° 0 mm 2 mps 754 mmHg 89%
    04:00 -12°C° 0 mm 2 mps 754 mmHg 90%
    05:00 -12°C° 0 mm 2 mps 754 mmHg 90%
    06:00 -12°C° 0 mm 2 mps 754 mmHg 90%
    07:00 -9°C° 0 mm 1 mps 754 mmHg 91%
    08:00 -9°C° 0 mm 1 mps 754 mmHg 91%
    09:00 -9°C° 0 mm 1 mps 754 mmHg 90%
    10:00 -9°C° 0 mm 1 mps 755 mmHg 89%
    11:00 -8°C° 0 mm 1 mps 755 mmHg 88%
    12:00 -8°C° 0 mm 1 mps 755 mmHg 89%
    13:00 -8°C° 0 mm 1 mps 754 mmHg 89%
    14:00 -8°C° 0 mm 1 mps 754 mmHg 89%
    15:00 -8°C° 0 mm 1 mps 755 mmHg 90%
    16:00 -8°C° 0 mm 1 mps 755 mmHg 91%
    17:00 -8°C° 0 mm 1 mps 755 mmHg 91%
    18:00 -8°C° 0 mm 1 mps 755 mmHg 92%
    19:00 -8°C° 0 mm 1 mps 755 mmHg 93%
    20:00 -8°C° 0 mm 1 mps 755 mmHg 94%
    21:00 -8°C° 0 mm 1 mps 755 mmHg 94%
    22:00 -8°C° 0 mm 1 mps 755 mmHg 94%
    23:00 -8°C° 0 mm 1 mps 755 mmHg 94%

    20 December, Thursday

    Time Temperature Precipitation Wind Pressure Humidity
    00:00 -8°C° 0 mm 1 mps 755 mmHg 94%
    01:00 -8°C° 0 mm 1 mps 755 mmHg 94%
    02:00 -8°C° 0 mm 1 mps 755 mmHg 94%
    03:00 -8°C° 0 mm 1 mps 755 mmHg 94%
    04:00 -8°C° 0 mm 1 mps 756 mmHg 94%
    05:00 -8°C° 0 mm 1 mps 756 mmHg 95%
    06:00 -8°C° 0 mm 0 mps 756 mmHg 94%
    07:00 -8°C° 0 mm 0 mps 756 mmHg 94%
    08:00 -8°C° 0 mm 0 mps 756 mmHg 94%
    09:00 -8°C° 0 mm 0 mps 756 mmHg 92%
    10:00 -7°C° 0 mm 0 mps 756 mmHg 90%
    11:00 -7°C° 0 mm 0 mps 756 mmHg 88%
    12:00 -7°C° 0 mm 0 mps 756 mmHg 87%
    13:00 -7°C° 0 mm 0 mps 756 mmHg 86%
    14:00 -6°C° 0 mm 0 mps 756 mmHg 85%
    15:00 -7°C° 0 mm 0 mps 756 mmHg 86%
    16:00 -7°C° 0 mm 0 mps 757 mmHg 87%
    17:00 -7°C° 0 mm 0 mps 757 mmHg 89%
    18:00 -8°C° 0 mm 0 mps 757 mmHg 89%
    19:00 -8°C° 0 mm 0 mps 757 mmHg 90%
    20:00 -8°C° 0 mm 0 mps 757 mmHg 91%
    21:00 -9°C° 0 mm 0 mps 757 mmHg 91%
    22:00 -9°C° 0 mm 0 mps 757 mmHg 92%
    23:00 -9°C° 0 mm 0 mps 757 mmHg 93%

    21 December, Friday

    Time Temperature Precipitation Wind Pressure Humidity
    00:00 -9°C° 0 mm 0 mps 757 mmHg 93%
    01:00 -9°C° 0 mm 0 mps 757 mmHg 93%
    02:00 -9°C° 0 mm 0 mps 757 mmHg 93%
    03:00 -10°C° 0 mm 0 mps 757 mmHg 93%
    04:00 -10°C° 0 mm 0 mps 757 mmHg 94%
    05:00 -10°C° 0 mm 0 mps 757 mmHg 94%
    06:00 -10°C° 0 mm 0 mps 757 mmHg 94%
    07:00 -10°C° 0 mm 0 mps 757 mmHg 94%
    08:00 -10°C° 0 mm 0 mps 757 mmHg 95%
    09:00 -10°C° 0 mm 0 mps 757 mmHg 93%
    10:00 -9°C° 0 mm 0 mps 757 mmHg 92%
    11:00 -8°C° 0 mm 0 mps 758 mmHg 90%
    12:00 -8°C° 0 mm 0 mps 757 mmHg 90%
    13:00 -8°C° 0 mm 1 mps 757 mmHg 90%
    14:00 -8°C° 0 mm 1 mps 757 mmHg 90%
    15:00 -8°C° 0 mm 1 mps 757 mmHg 91%
    16:00 -8°C° 0 mm 1 mps 757 mmHg 92%
    17:00 -8°C° 0 mm 1 mps 757 mmHg 93%
    18:00 -9°C° 0 mm 1 mps 757 mmHg 92%
    19:00 -9°C° 0 mm 1 mps 757 mmHg 92%
    20:00 -9°C° 0 mm 1 mps 757 mmHg 91%
    21:00 -9°C° 0 mm 1 mps 757 mmHg 91%
    22:00 -9°C° 0 mm 1 mps 757 mmHg 92%
    23:00 -10°C° 0 mm 2 mps 757 mmHg 92%
    Show more